Weather in Arbazh

Russia / Kirov Oblast     57˚40′42″N   48˚18′07″E
temp.,
°C
wind,
m/s
gust,
m/s
humid.,
%
clouds,
%
prec.,
mm/h
press.,
hPa
HPBL,
m
17 january, sun
sun1700:00−13˚n3795100 0.2 997330
03:00−14˚nnw3795100 0.6 998426
06:00−16˚nnw3894100 0.1 1000358
09:00−17˚nnw4894100 0.2 1003405
12:00−19˚nnw369298 0.0 1007335
15:00−21˚nw369587 0.0 1010169
18:00−24˚nnw239642 0.0 101325
21:00−25˚n229661 0.0 101620
18 january, mon
mon1800:00−26˚sw119753 0.0 101819
03:00−26˚wsw119733 0.0 101919
06:00−25˚ssw229648 0.0 101920
09:00−26˚sw129757 0.0 102020
12:00−21˚sw249527 0.0 1020183
15:00−22˚s129628 0.0 101920
18:00−25˚ssw229756 0.0 102020
21:00−25˚ssw229738 0.0 102020
19 january, tue
tue1900:00−26˚nne019842 0.0 102020
03:00−25˚se129771 0.0 101919
06:00−25˚ese119699 0.0 101820
09:00−25˚e119599 0.0 101819
12:00−21˚nne1291100 0.0 1017143
15:00−21˚nne2295100 0.0 101543
18:00−22˚nne2295100 0.0 101432
21:00−22˚n2294100 0.0 101442
20 january, wed
wed2000:00−23˚n2293100 0.0 101354
03:00−24˚nnw2393100 0.0 101348
06:00−24˚nw2393100 0.0 101345
09:00−24˚wnw229990 0.0 101327
12:00−19˚w239590 0.1 1013224
15:00−17˚w259693 0.1 1012231
18:00−17˚w259782 0.1 1013171
21:00−16˚w369788 0.2 1013181
21 january, thu
thu2100:00−15˚w379698 0.1 1013231
03:00−16˚w379697 0.2 1013233
06:00−15˚wnw399597 0.1 1014342
09:00−19˚wnw379998 0.1 1015190
12:00−18˚nw379298 0.0 1016381
15:00−19˚nw259595 0.0 1016149
18:00−22˚nnw2296100 0.0 101731
21:00−25˚n119772 0.0 101720